Theta_e
309 310 314 321 321 319 318 320 320 321 324 325 322 317 315 315 316 318 316 315 316 315 321 321 324 320 316 315 312 312 318 319 319 315 318 312 315 312 314 326 322 324 327 329 332
310 311 313 314 321 319 317 317 320 320 324 325 322 316 314 314 317 316 314 314 315 316 322 320 322 322 321 319 314 315 319 319 316 311 314 312 313 313 319 323 325 327 328 331 333
311 312 313 314 321 318 316 317 319 319 322 324 320 316 315 315 313 313 314 314 315 319 319 320 322 322 323 319 317 313 319 313 312 313 311 312 312 312 318 323 322 326 329 331 331
312 313 313 314 321 318 316 318 318 319 322 324 318 315 314 313 319 312 313 315 318 318 319 318 318 322 323 323 318 317 312 313 313 310 311 312 309 313 317 317 313 321 329 330 331
313 314 313 314 321 317 316 316 318 319 324 324 317 314 314 315 314 316 313 317 321 319 321 320 321 322 324 320 319 318 313 316 315 310 310 309 311 312 313 310 319 326 330 331 331
310 310 314 311 320 318 316 317 318 318 324 324 316 314 314 313 316 313 314 319 322 322 323 321 322 322 321 320 321 319 318 319 315 314 310 311 310 311 311 320 324 328 331 331 332
310 311 312 317 320 318 316 317 318 318 323 322 317 316 316 312 316 313 316 319 320 323 323 321 322 325 322 324 320 319 321 320 319 311 311 310 311 311 309 323 326 327 328 330 330
311 310 311 320 319 319 316 317 318 320 324 317 318 318 320 315 316 315 318 319 320 323 322 322 322 321 322 318 322 324 321 325 321 311 309 311 315 312 309 323 326 326 325 327 329
310 311 309 315 319 318 317 318 318 323 322 318 317 319 319 313 317 317 316 314 316 320 321 320 320 321 319 324 327 324 329 323 324 313 312 311 314 310 310 319 323 324 324 326 326
309 309 309 309 317 317 316 318 320 322 320 318 316 318 311 310 314 316 315 314 312 316 314 313 320 322 320 327 334 326 328 321 326 314 309 310 311 310 307 317 318 323 323 324 326
308 307 307 310 317 317 317 321 323 320 317 317 318 312 312 310 314 314 316 312 312 311 313 311 318 327 323 323 321 323 326 326 312 318 311 309 309 311 308 307 312 319 323 323 324
308 307 309 310 316 316 318 321 319 313 313 311 314 306 307 313 312 309 315 316 312 314 310 312 314 320 320 318 315 317 319 320 318 308 308 308 309 309 305 306 305 311 317 322 320
306 306 309 309 316 316 318 319 316 313 313 310 312 308 307 310 314 312 315 315 314 313 313 314 314 312 317 318 319 316 313 311 311 309 307 308 311 309 306 304 303 303 307 312 318
306 307 306 307 316 317 319 315 316 314 315 312 314 310 307 308 311 307 314 314 317 315 313 313 312 312 314 318 320 321 312 313 310 313 316 309 314 310 308 307 304 305 302 304 307
305 307 307 306 311 318 317 314 313 312 320 310 312 308 307 312 309 309 306 308 314 314 313 316 313 311 312 314 313 312 307 307 310 310 308 307 310 307 305 306 305 305 303 303 304
304 305 305 306 306 315 315 311 310 317 320 311 310 310 308 307 308 306 308 304 307 309 311 311 306 309 310 309 311 310 313 314 307 307 312 311 310 309 309 305 307 306 305 305 305
304 305 306 306 311 315 312 310 315 322 309 310 310 311 308 307 308 311 309 307 311 312 312 308 307 307 309 311 310 312 316 319 319 317 315 303 308 314 308 303 305 307 307 306 304
303 304 306 305 307 310 310 314 320 312 310 306 310 310 309 308 307 308 310 310 305 308 310 314 314 306 307 311 313 314 316 314 316 313 311 303 309 308 305 308 303 301 302 301 300
302 304 305 305 307 308 312 317 316 312 305 308 310 310 307 307 308 308 309 310 307 305 311 311 311 304 306 306 312 312 317 308 307 297 307 306 305 304 302 303 303 302 302 303 302
303 306 308 305 305 308 314 315 306 305 306 309 312 309 309 308 308 309 310 308 308 303 304 306 309 305 305 305 306 311 310 315 310 307 307 307 305 309 305 305 306 305 304 303 302
301 308 303 309 305 309 314 315 306 305 307 306 306 307 308 308 307 309 310 307 307 303 303 304 307 307 305 306 307 305 311 308 310 308 309 308 308 302 306 305 306 305 303 303 303
299 305 300 306 305 303 310 307 306 306 305 304 304 304 308 308 307 309 309 308 307 305 304 304 305 307 306 305 303 305 307 309 311 308 304 307 309 304 302 304 304 303 303 301 302
300 299 299 304 308 308 311 308 306 306 305 306 305 305 305 308 308 307 306 306 307 306 306 304 307 305 308 306 305 305 303 309 306 305 308 308 311 304 301 303 302 303 303 302 303
300 304 300 301 297 306 310 311 308 306 306 304 304 304 306 306 305 306 305 304 306 307 309 308 307 308 309 308 306 307 304 303 307 307 309 307 308 306 306 304 303 303 304 304 304
300 298 298 303 302 304 310 310 307 308 306 304 305 306 306 307 306 305 305 305 304 308 307 306 307 305 305 305 306 306 306 304 306 308 309 310 309 306 305 305 304 303 305 306 305
299 301 299 300 301 305 305 309 309 306 307 306 305 305 304 305 307 304 306 305 306 305 305 304 304 306 305 304 305 307 306 306 307 308 307 309 308 306 303 302 303 303 304 304 304
296 298 298 300 302 306 308 307 309 308 307 305 304 305 305 304 304 304 305 305 305 307 307 307 304 301 309 304 304 305 306 306 306 307 308 308 308 304 304 302 302 302 301 302 303
Wind_Speed
22 28 34 33 44 43 42 40 38 36 31 29 26 23 21 20 19 20 9 10 11 2 16 13 10 7 8 4 3 3 4 3 6 6 3 5 4 1 3 5 0 1 4 4 24
25 28 29 29 46 45 44 44 37 36 32 31 28 25 22 21 21 11 11 15 17 8 17 16 5 8 3 3 3 2 4 8 2 3 1 4 4 8 5 4 1 1 5 19 26
25 31 29 39 47 46 45 44 44 36 35 34 30 27 24 23 5 8 19 17 14 19 18 10 19 6 3 2 2 2 4 2 3 3 2 3 3 4 8 3 6 9 10 18 22
28 30 21 30 46 47 45 43 46 39 38 36 32 28 26 19 8 6 29 21 21 21 20 19 3 6 4 6 5 5 2 2 2 4 0 3 5 6 6 5 3 7 18 22 17
23 19 28 31 46 48 45 43 47 42 42 40 35 32 27 4 5 3 30 26 23 22 11 5 7 6 6 6 5 3 3 1 1 3 2 4 4 4 7 3 4 13 16 18 20
21 21 31 33 42 48 47 42 45 44 42 40 38 34 16 11 2 12 28 26 24 17 9 5 4 7 4 3 3 3 4 3 1 6 1 2 1 3 3 5 6 11 14 17 21
12 25 25 27 46 47 46 44 44 42 47 44 41 30 7 10 7 21 24 22 25 21 9 6 8 7 3 4 1 2 3 5 4 2 2 3 1 7 2 4 7 7 7 11 17
12 17 25 35 48 45 44 43 43 43 46 47 39 21 6 8 13 30 24 19 13 20 17 15 19 9 4 1 4 4 4 2 2 1 3 2 6 4 6 8 9 8 7 8 11
5 14 16 19 43 45 43 41 43 47 47 46 29 11 5 14 18 28 28 21 18 19 15 17 8 4 2 4 4 3 3 3 5 2 1 2 5 2 3 7 8 7 7 9 9
5 14 16 17 39 42 41 42 42 46 44 32 17 9 4 9 14 21 22 27 10 20 7 4 2 4 4 4 5 6 6 4 6 2 1 3 8 6 2 5 6 7 7 9 11
3 8 12 16 38 39 42 39 11 6 27 6 19 4 15 17 22 13 28 15 11 5 5 4 3 9 14 8 5 8 4 10 1 4 1 5 8 11 4 5 7 8 10 10 11
2 5 11 19 41 41 42 16 16 9 13 8 18 7 5 20 8 6 29 8 9 11 7 4 2 5 13 10 8 7 6 1 4 1 2 5 10 11 6 6 8 11 8 12 7
1 4 13 22 35 40 39 24 29 16 7 3 3 4 8 8 12 11 15 7 14 13 9 6 3 6 10 8 8 4 7 2 2 2 3 4 9 8 5 5 5 7 7 6 13
2 4 18 19 21 35 25 28 37 19 4 2 7 3 6 10 5 1 16 7 3 13 9 4 3 12 8 10 10 6 8 6 4 3 4 3 6 6 5 10 7 10 8 12 13
1 3 11 12 8 20 27 42 43 10 7 10 3 1 4 11 18 5 4 5 10 10 7 5 3 8 6 7 8 3 11 5 4 2 2 1 2 7 3 7 7 11 12 13 15
2 6 9 8 16 15 39 38 18 6 7 6 6 6 8 3 3 8 3 7 5 6 3 6 1 7 9 7 9 7 8 8 5 2 4 6 5 5 8 7 6 7 12 15 14
5 3 7 9 5 33 46 12 6 12 11 9 8 11 11 5 7 22 15 8 8 8 6 3 3 4 6 11 4 8 9 3 1 2 7 2 7 13 8 7 8 10 11 14 12
4 3 8 22 12 19 26 10 10 7 9 5 15 19 7 10 4 7 19 12 7 6 8 9 5 8 5 9 8 9 7 5 7 5 4 1 8 6 13 11 7 8 8 7 8
2 2 5 13 13 14 15 13 8 12 9 13 18 19 5 5 8 8 16 20 9 8 7 5 3 2 5 6 12 4 9 4 3 2 2 5 6 9 8 9 8 10 8 11 11
5 2 5 10 9 9 14 9 5 9 14 22 12 12 15 22 7 11 19 16 10 6 3 7 5 0 3 7 1 11 10 4 1 2 4 4 5 6 3 9 7 6 9 6 4
3 2 4 15 8 4 12 9 7 5 19 10 7 8 11 19 9 16 19 2 12 8 4 7 4 1 6 9 11 5 7 4 5 4 4 1 5 7 11 10 8 3 5 7 7
2 2 9 9 4 1 5 7 5 12 3 5 6 4 16 21 6 16 17 14 19 18 11 8 6 4 8 3 5 8 8 14 6 4 2 3 7 2 7 6 3 6 6 6 6
2 2 6 8 2 4 3 2 5 11 6 5 5 3 8 14 6 6 7 11 21 20 21 10 4 4 4 3 2 8 6 15 5 3 8 4 10 4 3 4 6 6 7 6 5
2 2 2 3 1 3 4 10 4 4 4 5 7 8 10 8 0 10 6 3 12 14 8 11 4 8 12 7 7 7 9 10 17 5 14 9 18 9 8 7 4 6 5 5 5
0 1 1 3 4 3 5 7 6 8 4 7 3 14 12 7 9 6 6 4 3 7 5 6 9 5 1 5 6 6 10 13 14 23 13 33 23 14 11 7 8 4 2 5 6
3 2 2 1 2 9 7 9 22 3 8 12 10 14 7 10 18 7 9 5 6 4 8 3 4 6 3 3 4 5 9 15 22 23 18 26 22 3 10 5 4 8 7 9 9
2 1 1 2 2 9 6 6 18 12 4 7 13 10 7 6 10 13 7 11 14 17 16 13 7 4 13 3 5 3 15 15 15 18 19 21 25 5 7 9 9 9 9 10 9
Wind_Direction
245 261 249 224 212 209 208 205 207 203 202 201 199 193 186 180 173 167 203 198 190 151 172 155 172 197 70 76 3 115 80 172 189 156 218 154 157 86 110 116 296 137 134 147 155
250 247 243 272 211 206 208 204 202 204 201 199 198 190 181 176 170 189 203 203 202 195 166 156 142 108 48 61 28 123 140 200 182 188 221 194 161 157 134 123 186 152 57 137 150
235 246 245 256 206 204 209 205 205 202 201 197 193 186 177 163 125 226 191 188 175 169 162 161 145 95 92 140 43 278 162 107 45 22 308 202 166 177 125 220 208 192 159 154 159
234 235 248 270 201 200 203 201 204 197 199 196 185 181 166 164 180 198 185 175 165 155 139 141 145 100 123 157 164 116 75 127 360 336 283 174 138 176 193 205 324 198 161 163 169
231 235 236 256 200 199 199 201 202 196 196 191 179 171 161 170 242 223 177 172 164 161 140 143 115 111 169 158 131 126 173 187 169 17 265 140 193 188 223 301 80 133 159 175 177
240 243 239 278 205 196 199 196 198 199 190 185 176 164 157 182 139 162 176 165 161 152 121 90 117 117 92 95 170 131 178 255 26 355 114 161 178 167 216 139 122 153 172 180 183
228 233 244 247 194 193 196 195 197 195 191 185 175 163 134 177 169 167 174 178 173 151 120 113 127 87 106 107 107 34 356 0 349 51 7 163 176 227 142 142 157 169 171 184 188
233 229 236 194 190 189 193 195 193 190 174 172 170 161 149 161 169 165 164 143 150 151 130 118 114 83 67 219 35 68 50 229 299 50 348 149 263 236 172 156 188 183 176 183 190
248 227 274 237 184 190 191 190 186 180 168 166 161 153 143 140 156 164 162 144 126 124 119 114 104 99 90 122 90 7 143 185 285 172 239 202 258 29 163 185 199 202 189 188 198
298 231 263 316 188 189 189 183 184 177 151 154 148 99 202 184 144 159 168 153 107 114 103 90 115 111 125 170 189 159 182 233 228 18 147 231 266 274 186 214 229 206 202 207 205
276 261 265 258 196 187 177 161 174 147 148 165 171 94 137 149 141 149 160 128 129 102 142 174 165 178 170 152 132 137 149 216 252 245 219 245 247 259 190 207 231 221 212 216 222
355 299 234 236 187 185 176 183 158 139 84 14 147 99 126 142 120 140 158 138 146 158 124 88 237 169 160 142 118 122 119 220 309 180 155 277 266 254 198 227 206 215 230 221 203
6 281 229 225 185 182 185 173 142 137 82 35 0 126 152 136 151 168 167 143 159 161 161 144 212 168 155 151 154 121 130 87 301 236 195 287 272 256 243 224 209 222 217 207 220
23 316 228 249 185 185 185 162 156 162 100 173 186 186 125 125 80 124 163 127 104 170 152 165 184 176 178 169 162 170 142 115 310 316 227 142 285 255 237 236 206 228 204 224 220
253 271 225 238 6 190 170 158 155 163 170 156 150 244 202 156 132 245 144 76 146 137 114 198 178 161 179 179 147 131 103 83 244 245 342 106 277 264 203 250 240 234 222 228 226
202 228 219 264 274 200 162 158 139 151 185 159 127 186 128 145 103 127 117 56 116 114 122 172 206 173 175 144 155 153 70 38 3 36 279 198 191 228 221 197 231 232 228 226 226
177 197 175 218 253 175 156 152 150 190 155 156 157 184 140 140 108 161 166 164 157 134 164 147 179 167 147 121 112 111 127 105 190 211 231 238 190 247 252 226 213 230 233 229 227
178 224 150 228 251 181 148 173 186 131 170 158 155 160 139 140 74 145 163 177 221 121 139 156 205 165 175 162 168 168 165 152 176 197 215 260 229 247 216 240 219 226 248 274 260
191 162 163 230 234 259 152 197 167 161 155 138 138 152 125 151 130 147 185 192 177 172 131 129 224 75 152 139 142 191 209 167 71 16 65 211 288 297 236 237 227 228 224 251 245
135 142 140 220 226 267 177 174 118 137 124 139 153 178 168 168 129 176 179 197 179 160 110 192 125 283 168 105 192 173 146 199 275 230 254 277 272 247 274 249 251 251 224 277 320
85 104 13 165 189 245 192 172 116 158 134 145 153 156 174 173 151 176 185 241 176 157 106 145 102 188 139 210 165 135 183 192 174 177 192 274 260 221 206 209 221 301 274 267 265
96 153 353 138 148 238 190 150 128 152 96 119 99 102 166 171 136 172 189 185 176 158 167 181 121 155 198 258 187 187 166 186 189 210 214 144 265 184 228 224 241 270 285 292 280
77 35 0 113 150 198 256 272 111 154 149 139 114 121 152 167 156 172 149 201 176 170 173 172 157 86 24 345 312 207 186 193 189 74 215 156 261 250 223 254 250 252 281 293 278
119 129 13 50 140 185 185 175 108 130 110 94 118 112 119 160 187 175 149 146 190 187 147 138 143 176 192 192 132 180 186 183 195 183 227 233 254 277 292 285 280 246 255 278 242
38 163 330 167 192 148 194 193 145 153 163 140 72 162 154 156 172 145 136 109 116 180 129 164 203 175 34 158 149 171 177 180 194 218 194 244 244 215 238 238 257 248 169 267 265
139 155 213 108 121 141 190 198 188 151 148 184 150 176 173 154 193 144 130 133 159 99 163 196 210 135 157 172 201 181 199 195 211 225 227 250 261 182 215 231 264 251 231 238 245
154 108 207 29 131 174 189 192 205 152 3 145 145 154 206 178 143 155 157 161 166 166 182 190 152 112 232 124 109 340 215 198 216 222 226 235 249 231 228 221 222 236 225 240 238